EW9490 Weather Reports


time (UTC)temp
F
wind
direction
speed
knots
gust
knots
rain 1hr
in
rain 24hr
in
rain mn
in
humidity
%
barometer
mb
20260508091511 37 255 0.0 0.0 0.00 0.00 0.00 95 1014.4
20260508090007 37 255 0.0 0.0 0.00 0.00 0.00 95 1014.5
20260508084505 37 255 0.0 0.0 0.00 0.00 0.00 95 1014.5
20260508083007 37 255 0.0 0.0 0.00 0.00 0.00 95 1014.4
20260508081502 37 255 0.0 0.0 0.00 0.00 0.00 95 1014.3
20260508080057 37 255 0.0 0.0 0.00 0.00 0.00 94 1014.4
20260508074555 38 255 0.0 0.0 0.00 0.00 0.00 94 1014.2
20260508073108 38 255 0.0 0.0 0.00 0.00 0.00 94 1014.2
20260508071549 38 255 0.0 0.0 0.00 0.00 0.00 94 1014.2
20260508070048 39 255 0.0 0.0 0.00 0.00 0.00 94 1014.3
20260508064549 38 255 0.0 0.0 0.00 0.00 0.00 94 1014.4
20260508063050 39 255 0.0 0.0 0.00 0.00 0.00 93 1014.7
20260508061546 38 255 0.0 0.0 0.00 0.00 0.00 93 1014.7
20260508060013 39 255 0.0 0.0 0.00 0.00 0.00 92 1014.5
20260508054512 39 255 0.0 0.0 0.00 0.00 0.00 92 1014.6
20260508053008 40 255 0.0 0.0 0.00 0.00 0.00 92 1014.5
20260508051506 40 255 0.0 0.0 0.00 0.00 0.00 91 1014.7
20260508050004 40 255 0.0 0.0 0.00 0.00 0.00 91 1014.7
20260508044505 41 255 0.0 0.0 0.00 0.00 0.00 89 1014.6
20260508043000 41 255 0.0 0.0 0.00 0.00 0.00 89 1014.6
20260508041600 41 255 0.0 0.0 0.00 0.00 0.00 88 1014.5
20260508040105 42 255 0.0 0.0 0.00 0.00 0.00 86 1014.5
20260508034559 42 255 0.0 0.0 0.00 0.00 0.00 84 1014.3
20260508033028 43 255 0.0 0.0 0.00 0.00 0.00 83 1014.2
20260508031534 44 255 0.0 0.0 0.00 0.00 0.00 80 1014.2
20260508030025 45 255 0.0 0.0 0.00 0.00 0.00 77 1014.3
20260508024547 46 255 0.0 0.0 0.00 0.00 0.00 74 1014.2
20260508023024 46 255 0.0 0.0 0.00 0.00 0.00 70 1014.2
20260508021524 48 255 0.0 0.0 0.00 0.00 0.00 66 1014.0
20260508020057 49 255 0.0 0.0 0.00 0.00 0.00 63 1013.7
20260508014555 50 255 0.0 0.0 0.00 0.00 0.00 59 1013.6
20260508013051 51 255 0.0 0.0 0.00 0.00 0.00 57 1013.5
20260508011556 53 255 0.0 0.0 0.00 0.00 0.00 54 1013.4
20260508010054 54 255 0.0 0.0 0.00 0.00 0.00 50 1013.2
20260508004555 55 255 0.0 2.6 0.00 0.00 0.00 46 1013.1
20260508003045 56 255 0.0 3.5 0.00 0.00 0.00 44 1013.0
20260508001548 57 295 0.0 7.8 0.00 0.00 0.00 42 1012.9
20260508000046 59 265 0.9 7.0 0.00 0.00 0.00 40 1012.5
20260507234544 60 263 2.6 11.3 0.00 0.00 0.00 39 1012.4
20260507233041 60 294 2.6 10.4 0.00 0.00 0.00 37 1012.4
20260507231543 61 253 4.3 9.6 0.00 0.00 0.00 35 1012.3
20260507230052 61 293 4.3 9.6 0.00 0.00 0.00 34 1012.3
20260507224540 62 255 2.6 13.9 0.00 0.00 0.00 33 1011.8
20260507223036 62 279 2.6 10.4 0.00 0.00 0.00 33 1011.9
20260507221541 63 263 3.5 10.4 0.00 0.00 0.00 32 1011.6
20260507220034 63 257 4.3 8.7 0.00 0.00 0.00 34 1011.5
20260507214536 63 283 2.6 13.9 0.00 0.00 0.00 32 1011.5
20260507213101 63 299 5.2 13.9 0.00 0.00 0.00 32 1011.3
20260507211605 63 255 5.2 16.5 0.00 0.00 0.00 32 1011.1
20260507210109 63 289 2.6 10.4 0.00 0.00 0.00 32 1011.1
20260507204555 63 262 3.5 11.3 0.00 0.00 0.00 33 1011.0
20260507203117 63 312 3.5 9.6 0.00 0.00 0.00 37 1010.7
20260507201555 63 278 7.0 13.9 0.00 0.00 0.00 36 1010.9
20260507200052 63 246 4.3 13.0 0.00 0.00 0.00 33 1010.9
20260507194558 63 243 2.6 9.6 0.00 0.00 0.00 38 1011.1
20260507193046 62 274 5.2 11.3 0.00 0.00 0.00 36 1011.3
20260507193044 62 277 5.2 11.3 0.00 0.00 0.00 36 1011.3
20260507191546 62 286 5.2 13.0 0.00 0.00 0.00 37 1011.5
20260507190047 62 272 4.3 15.6 0.00 0.00 0.00 38 1011.7
20260507184539 61 270 3.5 11.3 0.00 0.00 0.00 37 1011.8
20260507183039 61 288 2.6 15.6 0.00 0.00 0.00 39 1011.7
20260507181537 62 282 3.5 10.4 0.00 0.00 0.00 40 1011.7
20260507180039 61 253 1.7 6.1 0.00 0.00 0.00 43 1011.8
20260507174540 61 277 4.3 9.6 0.00 0.00 0.00 41 1011.9
20260507173052 62 303 4.3 8.7 0.00 0.00 0.00 39 1012.2
20260507171529 61 227 3.5 7.8 0.00 0.00 0.00 43 1012.3
20260507170030 61 211 3.5 7.8 0.00 0.00 0.00 42 1012.5
20260507164554 61 261 1.7 5.2 0.00 0.00 0.00 42 1012.5
20260507163052 60 279 2.6 7.8 0.00 0.00 0.00 46 1012.9
20260507161551 58 270 0.9 7.0 0.00 0.00 0.00 46 1012.9
20260507160051 59 234 1.7 7.0 0.00 0.00 0.00 46 1013.0
20260507154546 59 265 2.6 8.7 0.00 0.00 0.00 46 1013.0
20260507153044 58 277 2.6 7.8 0.00 0.00 0.00 46 1013.1
20260507151540 58 218 0.9 7.0 0.00 0.00 0.00 50 1013.0
20260507150043 58 225 3.5 8.7 0.00 0.00 0.00 50 1013.1
20260507144538 58 319 4.3 7.8 0.00 0.00 0.00 52 1013.3
20260507143050 57 287 2.6 7.0 0.00 0.00 0.00 54 1013.5
20260507141545 57 206 0.9 3.5 0.00 0.02 0.00 54 1013.8
20260507140027 56 233 1.7 5.2 0.00 0.02 0.00 57 1013.8
20260507134522 55 260 1.7 6.1 0.00 0.02 0.00 59 1013.7
20260507133021 55 212 0.9 4.3 0.00 0.02 0.00 60 1013.9
20260507131549 55 238 0.0 0.9 0.00 0.03 0.00 63 1014.0
20260507130058 54 225 0.0 1.7 0.00 0.03 0.00 71 1014.1
20260507124542 52 252 0.0 1.7 0.00 0.03 0.00 74 1014.2
20260507123040 50 252 0.0 1.7 0.00 0.03 0.00 81 1014.1
20260507121534 50 220 0.0 0.9 0.00 0.04 0.00 83 1014.0
20260507120035 48 220 0.0 0.9 0.00 0.04 0.00 87 1014.1
20260507114526 47 253 0.0 0.9 0.00 0.04 0.00 89 1014.1
20260507113023 46 253 0.0 0.0 0.00 0.04 0.00 95 1013.7
20260507111520 43 253 0.0 0.0 0.00 0.07 0.00 96 1013.6
20260507110020 40 253 0.0 0.0 0.00 0.07 0.00 94 1013.5
20260507104515 41 253 0.0 0.0 0.00 0.07 0.00 94 1013.5
20260507103014 41 253 0.0 0.0 0.00 0.07 0.00 94 1013.2
20260507101513 41 254 0.0 0.0 0.00 0.14 0.00 93 1013.1
20260507100015 42 254 0.0 0.0 0.00 0.14 0.00 93 1013.1
20260507094547 42 254 0.0 0.0 0.00 0.14 0.00 91 1012.9
20260507093034 43 254 0.0 0.0 0.00 0.14 0.00 91 1013.1